Location: Eaton
(41.3139°N, 82.0207°W)
Time: 00:06:59
(UTC+00:00)

X-37B - Pass Details

Date: 17 June 2021
Orbit: 383 x 392 km, 45.0° (Epoch: 01 July)

Event Time Altitude Azimuth Distance (km) Brightness Sun altitude
Exits shadow 06:21:07 18° 66° (ENE) 1,010 3.0 -24.2°
Drops below altitude 10° 06:22:06 10° 68° (ENE) 1,407 3.8 -24.1°
Sets 06:24:11 0° 70° (ENE) 2,263 4.9 -24.0°
